Shelton, WA
on Saturday, November 10, 2012

Saturday
Previous Day Next Day
Daily Summary
 ActualAverage (KOLM)Record (KOLM)
Temperature
Mean Temperature °F 45°F  
Max Temperature 44°F 52°F 62°F (1954)
Min Temperature 24°F 38°F 20°F (2012)
Degree Days
Heating Degree Days 31 20  
Month to date heating degree days 194  
Since 1 July heating degree days 988  
Cooling Degree Days 0 0  
Month to date cooling degree days 0  
Year to date cooling degree days 106  
Moisture
Dew Point 28°F   
Average Humidity 85    
Maximum Humidity 100    
Minimum Humidity 51    
Precipitation
Precipitation 0.00 in 0.29 in 1.90 in (1962)
Month to date precipitation 2.58  
Year to date precipitation 36.49  
Wind
Wind Speed 1 mph   
Max Wind Speed 8 mph   
Max Gust Speed mph   
Visibility 10 miles   
Events     

Key: T is trace of precipitation, MM is missing value
Source: NWS Daily Summary
Time(PST)TemperatureDew PointHumidity Pressure Visibility Wind DirectionWind SpeedGust SpeedPrecipitationEvents Conditions
12:53 AM 26.1°F 25.0°F 96% 29.96 in 10.0 miles Calm Calm - N/A   Clear
1:10 AM 26.6°F 24.8°F 93% 29.95 in 10.0 miles Calm Calm - N/A   Partly Cloudy
1:53 AM 26.1°F 24.1°F 92% 29.98 in 10.0 miles Calm Calm - N/A   Clear
2:53 AM 26.1°F 24.1°F 92% 29.98 in 10.0 miles Calm Calm - N/A   Partly Cloudy
3:35 AM 24.8°F 24.8°F 100% 29.97 in 10.0 miles Calm Calm - N/A   Scattered Clouds
3:53 AM 24.1°F 23.0°F 96% 29.99 in 10.0 miles Calm Calm - N/A   Scattered Clouds
4:53 AM 24.1°F 23.0°F 96% 30.02 in 10.0 miles Calm Calm - N/A   Partly Cloudy
5:53 AM 27.0°F 26.1°F 96% 30.03 in 10.0 miles Calm Calm - N/A   Overcast
6:53 AM 28.9°F 27.0°F 92% 30.05 in 10.0 miles Calm Calm - N/A   Overcast
7:53 AM 28.9°F 28.0°F 96% 30.06 in 10.0 miles Calm Calm - N/A   Mostly Cloudy
8:53 AM 33.1°F 32.0°F 96% 30.09 in 10.0 miles Calm Calm - N/A   Overcast
9:07 AM 33.8°F 32.0°F 93% 30.07 in 10.0 miles Calm Calm - N/A   Overcast
9:53 AM 37.0°F 35.1°F 93% 30.10 in 10.0 miles Calm Calm - N/A   Scattered Clouds
10:53 AM 41.0°F 30.9°F 67% 30.11 in 10.0 miles East 4.6 mph - N/A   Partly Cloudy
11:53 AM 42.1°F 28.9°F 60% 30.12 in 10.0 miles Calm Calm - N/A   Clear
12:53 PM 43.0°F 30.9°F 62% 30.13 in 10.0 miles SE 6.9 mph - N/A   Overcast
1:53 PM 44.1°F 30.0°F 58% 30.13 in 10.0 miles East 5.8 mph - N/A   Scattered Clouds
2:53 PM 44.1°F 27.0°F 51% 30.13 in 10.0 miles East 8.1 mph - N/A   Clear
3:53 PM 43.0°F 28.0°F 56% 30.15 in 10.0 miles ESE 5.8 mph - N/A   Clear
4:53 PM 37.0°F 28.9°F 73% 30.16 in 10.0 miles North 3.5 mph - N/A   Clear
5:53 PM 34.0°F 28.9°F 82% 30.18 in 10.0 miles Calm Calm - N/A   Clear
6:53 PM 30.9°F 28.0°F 89% 30.19 in 10.0 miles Calm Calm - N/A   Clear
7:53 PM 28.4°F 26.6°F 93% 30.17 in 10.0 miles Calm Calm - N/A   Clear
8:53 PM 27.0°F 26.1°F 96% 30.20 in 10.0 miles SW 5.8 mph - N/A   Clear
9:53 PM 28.0°F 27.0°F 96% 30.21 in 10.0 miles Calm Calm - N/A   Clear
10:53 PM 28.9°F 28.0°F 96% 30.21 in 10.0 miles Calm Calm - N/A   Clear
11:53 PM 28.0°F 27.0°F 96% 30.22 in 10.0 miles SSW 3.5 mph - N/A   Clear
Moon Phase
Nov. 10 Nov. 13 Nov. 20 Nov. 28 Dec. 06
Sunrise:07:10 AM (PST) Moon Rise:03:08 AM (PST)11/10
Sunset:04:42 PM (PST) Moon Set:02:43 PM (PST)11/10

Copyright © 2014 The Weather Underground, Inc.